SCP
0 1 1 1 1 0 1 1 0 0 0 0 1 1 2 3 4 4 3 2 1 0 0 0 0 1 1 0 0 0 0 0 1 1 0 0 0 0 0 0 0 0 0
0 1 1 1 0 0 1 1 0 0 0 0 0 1 2 3 3 3 3 2 1 0 0 0 0 1 1 0 0 0 0 0 0 1 0 0 0 0 0 0 0 0 0
0 1 1 0 0 0 0 0 0 0 0 0 0 1 1 2 2 2 2 2 1 0 0 0 0 1 1 0 0 0 1 0 0 0 0 0 0 0 0 0 0 0 0
1 1 1 0 0 0 0 0 0 0 0 0 0 0 1 1 2 2 2 1 1 0 0 0 0 0 0 0 0 1 1 0 0 0 0 0 0 0 0 0 0 0 0
1 1 1 0 0 0 0 0 0 0 0 0 0 0 0 1 1 2 2 1 0 0 0 0 0 0 0 0 1 1 1 1 0 0 0 0 0 0 0 0 0 0 0
0 0 0 0 0 0 0 0 0 0 0 0 0 0 0 1 1 1 2 1 0 0 0 0 0 0 0 0 1 1 1 1 1 0 0 0 0 0 0 0 0 0 0
0 0 0 0 0 0 0 0 0 0 0 0 0 0 0 1 1 1 1 1 1 0 0 0 0 0 0 0 1 1 1 1 1 0 0 0 0 0 0 0 0 0 0
0 0 0 0 0 0 0 0 0 0 0 0 0 0 0 1 1 1 1 1 1 0 0 0 0 0 0 0 1 1 1 1 1 1 0 0 0 0 0 0 0 0 0
0 0 0 0 0 0 0 0 0 0 0 0 0 0 1 1 1 1 1 1 1 1 0 0 0 0 0 0 1 1 1 1 1 1 1 1 0 0 0 0 0 0 0
0 0 0 0 0 0 0 0 0 0 0 0 0 1 1 1 1 1 1 1 1 1 0 0 0 0 0 0 0 0 0 0 1 1 1 1 0 0 0 0 0 0 0
0 0 0 0 0 1 1 0 0 0 0 0 0 1 1 1 1 1 1 1 1 0 0 0 0 0 0 0 0 0 0 0 0 1 1 1 1 0 0 0 0 0 0
0 0 0 0 1 1 1 0 0 0 0 0 1 1 1 1 1 1 1 0 0 0 0 0 0 0 0 0 0 0 0 0 0 0 1 1 1 1 0 0 0 0 0
0 0 0 0 1 1 0 0 0 0 0 0 1 1 1 1 1 1 1 0 0 0 0 0 0 0 0 0 0 0 0 0 0 0 0 1 1 1 0 0 0 0 0
0 0 0 0 0 0 0 0 0 0 0 0 1 1 1 1 1 1 0 0 0 0 0 0 0 0 0 0 0 0 0 0 0 0 0 1 1 1 1 0 0 0 0
0 0 0 0 0 0 0 0 0 0 0 0 1 1 1 1 1 1 0 0 0 0 0 0 0 0 0 0 0 0 0 0 0 0 0 1 1 1 1 0 0 0 0
0 0 0 0 0 0 0 0 0 0 0 0 0 0 1 1 1 0 0 0 0 0 0 0 0 0 0 0 0 0 0 0 0 0 0 0 1 1 1 0 0 0 0
0 0 0 0 0 0 0 0 0 0 0 0 0 0 0 0 0 0 0 0 0 0 0 0 0 0 0 0 0 0 0 0 0 0 0 0 1 1 1 1 0 0 0
0 0 0 0 0 0 0 0 0 0 0 0 0 0 0 0 0 0 0 0 0 0 0 0 0 0 0 0 0 0 0 0 0 0 0 0 1 1 1 1 0 0 0
0 0 0 0 0 0 0 0 0 0 0 0 0 0 0 0 0 0 0 0 0 0 0 0 0 0 0 0 0 0 0 0 0 0 0 0 1 1 1 1 1 0 0
0 0 0 0 0 0 0 0 0 0 0 0 0 0 0 0 0 0 0 0 0 0 0 0 0 0 0 0 0 0 0 0 0 0 0 0 0 1 1 1 1 0 0
0 0 0 0 0 0 0 0 0 0 0 0 0 0 0 0 0 0 0 0 0 0 0 0 0 0 0 0 0 0 0 0 0 0 0 0 0 0 0 1 1 0 0
0 0 0 0 0 0 0 0 0 0 0 0 0 0 0 0 0 0 0 0 0 0 0 0 0 0 0 0 0 0 0 0 0 0 0 0 0 0 0 0 0 0 0
0 0 0 0 0 0 0 0 0 0 0 0 0 0 0 0 0 0 0 0 0 0 0 0 0 0 0 0 0 0 0 0 0 0 0 0 0 0 0 0 0 0 0
0 0 0 0 0 0 0 0 0 0 0 0 0 0 0 0 0 0 0 0 0 0 0 0 0 0 0 0 0 0 0 0 0 0 0 0 0 0 0 0 0 0 0
0 0 0 0 0 0 0 0 0 0 0 0 0 0 0 0 0 0 0 0 0 0 0 0 0 0 0 0 0 0 0 0 0 0 0 0 0 0 0 0 0 0 0
0 0 0 0 0 0 0 0 0 0 0 0 0 0 0 0 0 0 0 0 0 0 0 0 0 0 0 0 0 0 0 0 0 0 0 0 0 0 0 0 0 0 0
Wind_Speed
8 6 6 6 6 6 6 7 7 6 5 4 3 3 4 4 4 5 7 7 7 8 7 6 7 8 7 8 8 7 8 6 6 5 4 2 2 3 4 4 4 5 5
9 8 7 6 6 6 7 7 7 7 7 5 5 5 4 4 5 5 6 7 8 9 7 8 7 8 8 9 9 9 6 5 7 6 7 4 2 2 4 4 5 5 4
8 9 8 7 7 7 7 8 8 8 7 7 5 4 3 3 4 5 5 7 8 9 9 9 8 9 9 9 11 11 9 8 7 7 7 7 6 3 3 5 5 5 5
7 8 9 9 8 9 9 8 8 8 8 7 6 6 6 6 7 5 6 7 8 9 9 10 10 10 9 9 11 11 9 11 9 7 3 3 6 6 4 3 4 5 6
7 8 9 9 9 9 9 8 8 9 9 8 8 7 7 7 5 5 7 8 8 9 9 10 10 11 10 10 11 11 11 10 10 8 5 3 2 4 5 5 5 4 4
8 9 9 9 9 9 8 8 9 10 9 9 9 8 8 8 7 8 8 7 6 7 9 10 11 11 10 11 11 11 13 11 9 7 6 6 6 6 4 5 6 5 3
8 9 10 10 11 11 10 9 10 11 9 9 9 8 9 9 10 10 9 8 7 6 9 9 10 10 11 11 10 11 12 13 12 10 7 6 5 5 4 5 5 3 2
8 9 10 11 11 11 11 10 11 11 10 8 8 7 7 7 7 9 8 9 8 8 8 10 10 11 12 12 10 10 11 11 12 10 9 6 6 5 5 5 6 5 2
10 11 11 11 11 11 11 11 11 11 10 9 7 6 7 7 7 8 8 8 7 7 9 10 10 10 11 12 11 9 12 11 11 10 10 7 6 6 4 4 6 7 6
11 12 11 10 10 10 11 11 11 11 10 9 7 6 6 7 7 8 9 9 9 8 9 10 10 10 10 12 11 10 11 12 11 9 10 8 6 6 5 5 4 4 5
12 12 12 11 10 10 11 10 10 10 10 9 8 6 6 6 7 7 8 8 8 8 9 10 10 10 10 12 11 11 12 13 12 11 11 10 8 7 6 5 5 4 4
11 11 11 11 10 10 10 10 10 10 10 8 8 6 6 6 6 7 7 7 8 9 9 10 10 10 11 11 12 13 13 14 14 13 12 11 9 9 8 7 6 5 4
12 11 10 9 10 10 10 10 10 10 9 8 7 6 6 5 6 7 7 7 7 8 8 9 10 10 10 11 12 13 13 14 14 14 13 12 12 11 8 8 7 5 4
12 11 10 9 10 10 10 10 10 9 9 8 7 7 7 6 6 7 7 6 5 5 7 8 9 10 10 10 11 11 11 12 12 12 12 12 13 13 11 9 8 7 5
12 11 10 9 10 10 10 10 10 10 9 8 7 7 7 6 6 6 5 5 4 4 5 7 7 8 8 9 10 10 10 11 11 11 11 11 13 14 12 9 9 9 7
12 11 11 11 11 11 10 10 10 9 8 8 7 7 8 7 6 5 5 4 3 3 3 5 6 6 6 9 11 11 9 10 12 12 10 11 13 14 15 15 14 13 11
12 12 12 11 11 11 10 10 10 8 7 7 7 7 8 8 6 5 4 4 3 3 2 3 4 5 5 9 10 11 9 10 11 11 11 9 10 13 11 12 13 11 12
11 11 11 11 11 10 10 9 9 8 7 7 7 7 8 7 6 5 5 4 2 2 1 1 3 4 5 7 9 10 9 8 9 10 11 12 11 11 13 11 9 7 6
11 10 10 11 10 10 10 9 9 8 7 7 7 7 7 6 7 6 6 3 2 2 1 1 2 3 3 5 7 9 7 7 8 8 10 12 12 16 17 13 11 8 5
9 9 9 9 10 10 9 9 9 8 8 8 7 7 6 6 7 6 5 3 2 2 1 1 1 2 3 4 6 7 6 8 7 7 9 13 15 18 19 14 13 11 8
11 10 9 9 9 9 8 8 9 9 9 8 7 7 5 5 5 5 4 3 2 1 1 1 1 1 2 3 5 5 6 8 7 6 7 9 17 19 18 14 11 13 12
11 10 9 10 9 8 7 8 9 9 8 7 6 6 5 4 5 4 4 3 1 1 1 1 1 0 1 2 4 5 7 8 8 7 6 9 17 18 18 13 15 19 15
11 9 8 10 10 8 6 8 10 8 7 6 6 5 5 4 4 4 4 4 2 1 1 1 1 1 0 1 3 5 7 9 7 6 11 14 17 16 14 16 19 16 10
10 8 8 9 10 9 7 8 9 7 5 6 6 5 5 5 4 3 3 3 2 1 1 1 1 1 1 1 2 3 5 8 7 8 12 16 16 12 12 14 12 8 8
9 8 8 9 10 9 8 8 7 5 5 5 6 5 4 4 4 4 3 4 3 3 3 2 2 2 2 2 2 2 3 4 6 8 7 7 8 8 8 7 7 7 7
9 9 9 9 10 9 9 7 6 4 4 5 5 4 3 4 4 4 5 6 5 6 6 6 4 3 3 3 3 3 4 7 12 9 8 8 9 9 9 9 8 7 7
Wind_Direction
287 291 294 293 289 290 289 285 285 284 281 265 254 241 235 237 241 233 227 226 223 214 204 202 199 196 190 190 182 172 171 174 159 143 140 104 136 182 185 176 174 181 180
319 318 310 303 290 283 285 288 289 283 274 259 248 243 236 238 237 237 233 231 225 216 211 202 202 201 190 188 186 172 168 175 171 158 147 144 166 214 199 186 184 184 178
309 315 314 307 300 292 285 285 285 282 279 272 262 259 253 247 238 237 233 236 226 216 213 209 204 203 192 190 189 179 175 176 182 176 163 161 183 167 198 200 191 183 184
310 315 315 310 306 296 288 281 278 278 273 267 255 246 242 244 244 237 237 237 225 220 217 211 207 206 196 191 194 187 179 175 181 185 192 171 151 152 164 191 193 189 191
310 314 314 308 304 300 294 286 283 280 271 261 249 245 250 250 250 243 240 239 229 219 220 214 209 205 199 193 195 189 184 185 187 181 171 156 146 138 150 174 182 188 199
314 312 312 312 309 305 305 299 291 287 276 263 253 243 245 250 249 245 237 236 231 223 219 218 213 205 200 196 197 193 191 191 189 186 177 168 165 168 156 165 179 183 186
311 313 316 316 313 311 309 307 302 295 284 269 257 246 241 241 242 240 232 233 231 228 220 218 212 208 203 198 196 196 197 194 189 189 188 181 179 163 153 150 158 157 154
310 312 308 307 308 309 310 309 306 300 290 276 263 249 246 243 245 243 237 231 230 228 221 219 211 211 205 199 196 199 200 197 193 190 187 181 179 170 165 160 155 153 157
312 311 309 307 308 308 307 306 304 302 300 294 280 257 249 248 252 258 247 235 230 225 216 220 212 210 206 200 195 203 200 196 195 190 187 183 181 174 170 166 163 160 172
310 311 311 308 307 306 304 305 305 304 305 300 289 274 259 254 252 255 253 236 225 222 215 218 211 207 208 202 196 203 200 196 197 189 186 185 179 172 165 170 171 167 160
304 307 309 307 308 312 310 308 308 310 309 307 298 284 273 268 262 256 254 245 232 222 215 217 209 206 209 202 197 204 197 195 196 190 186 187 177 172 169 169 169 167 151
300 302 305 309 313 315 314 313 312 312 308 307 304 291 278 276 274 272 267 252 238 223 215 213 208 207 209 202 199 202 198 194 194 191 184 184 179 174 171 172 174 174 164
307 308 309 311 312 313 313 314 315 315 314 311 309 302 292 282 279 279 282 266 247 226 211 208 206 205 206 201 201 201 197 194 193 189 185 181 177 179 175 173 173 169 163
306 308 309 309 310 311 311 313 314 314 316 314 310 306 301 285 281 283 279 272 253 232 213 211 208 206 205 200 200 197 195 193 191 188 185 182 181 181 176 175 173 164 157
309 308 308 308 309 311 310 311 313 315 317 315 309 306 306 293 287 287 282 275 252 244 224 209 209 206 204 197 196 193 190 190 187 184 185 184 177 178 177 174 170 166 164
307 307 308 309 309 308 308 311 311 311 313 311 309 313 316 312 298 289 292 293 272 252 237 209 203 205 209 199 198 194 187 187 184 182 181 176 168 169 171 169 169 170 169
302 304 304 303 303 302 303 307 308 309 311 309 312 316 316 314 304 297 301 298 291 272 240 213 203 203 199 199 195 190 188 188 185 180 175 171 169 166 164 162 163 167 168
298 300 301 302 301 300 303 305 306 307 309 308 312 313 316 314 316 304 297 299 277 267 250 233 211 200 199 197 187 176 181 184 185 181 175 168 167 168 162 158 158 159 166
290 293 295 297 300 302 304 308 309 307 308 305 305 309 311 310 313 311 299 296 300 295 268 252 211 196 193 187 185 176 172 175 178 178 173 167 167 165 158 157 155 146 135
294 296 299 301 301 303 307 308 308 307 303 302 298 298 299 302 304 307 308 303 303 294 305 283 230 200 197 192 188 185 172 171 171 170 168 168 166 165 162 162 159 156 151
296 297 298 298 296 302 307 303 304 302 298 299 298 297 295 300 303 308 311 311 307 312 308 291 271 216 206 194 191 192 177 170 167 169 170 168 162 161 163 163 162 158 147
299 299 299 297 298 301 301 299 298 296 302 303 304 304 306 309 315 317 320 324 304 303 299 308 332 274 202 203 191 189 179 170 169 169 165 160 158 157 158 159 150 142 137
296 297 295 297 300 299 294 292 295 299 305 306 306 307 309 311 314 317 321 323 313 269 284 287 293 296 254 202 188 171 168 164 165 159 153 152 152 151 153 151 146 142 140
298 300 301 301 301 302 298 290 296 300 303 304 308 313 316 319 320 318 313 309 303 289 273 274 272 287 274 193 158 156 148 149 148 142 141 142 143 144 144 144 144 144 149
299 300 298 297 298 303 303 302 303 305 306 304 304 309 311 312 315 317 309 305 292 271 270 257 236 235 245 216 192 178 165 163 154 142 137 140 146 148 144 141 141 140 141
302 303 302 300 301 303 301 302 304 298 298 302 303 306 312 313 317 324 331 327 307 310 295 280 273 270 229 207 191 180 163 157 152 145 149 154 155 155 154 152 147 146 149